| time (UTC) | temp F | wind direction | speed MPH | gust MPH | rain 1hr in | rain 24hr in | rain mn in | humidity % | barometer mb |
| 20260507211331 | 61 | 294 | 3.0 | 14.0 | 0.00 | 0.00 | 0.00 | 41 | 1012.8 |
| 20260507210823 | 61 | 1 | 8.0 | 14.0 | 0.00 | 0.00 | 0.00 | 38 | 1012.8 |
| 20260507210314 | 61 | 19 | 5.0 | 11.0 | 0.00 | 0.00 | 0.00 | 41 | 1012.7 |
| 20260507205824 | 61 | 53 | 3.0 | 11.0 | 0.00 | 0.00 | 0.00 | 39 | 1012.7 |
| 20260507205317 | 61 | 8 | 7.0 | 14.0 | 0.00 | 0.00 | 0.00 | 41 | 1012.7 |
| 20260507204850 | 61 | 40 | 6.0 | 13.0 | 0.00 | 0.00 | 0.00 | 39 | 1012.7 |
| 20260507204320 | 61 | 46 | 7.0 | 11.0 | 0.00 | 0.00 | 0.00 | 39 | 1012.7 |
| 20260507203836 | 61 | 237 | 1.0 | 9.0 | 0.00 | 0.00 | 0.00 | 40 | 1012.6 |
| 20260507203327 | 61 | 30 | 7.0 | 12.0 | 0.00 | 0.00 | 0.00 | 39 | 1012.8 |
| 20260507202820 | 61 | 315 | 5.0 | 15.0 | 0.00 | 0.00 | 0.00 | 43 | 1012.8 |
| 20260507202312 | 60 | 33 | 7.0 | 15.0 | 0.00 | 0.00 | 0.00 | 39 | 1012.7 |
| 20260507201825 | 61 | 13 | 9.0 | 13.0 | 0.00 | 0.00 | 0.00 | 39 | 1012.7 |
| 20260507201317 | 61 | 288 | 6.0 | 11.0 | 0.00 | 0.00 | 0.00 | 37 | 1012.6 |
| 20260507200829 | 61 | 333 | 3.0 | 9.0 | 0.00 | 0.00 | 0.00 | 43 | 1012.7 |
| 20260507200322 | 61 | 347 | 4.0 | 11.0 | 0.00 | 0.00 | 0.00 | 41 | 1012.9 |
| 20260507195813 | 61 | 314 | 6.0 | 11.0 | 0.00 | 0.00 | 0.00 | 41 | 1012.8 |
| 20260507195324 | 61 | 4 | 4.0 | 12.0 | 0.00 | 0.00 | 0.00 | 39 | 1012.8 |
| 20260507194817 | 60 | 23 | 4.0 | 14.0 | 0.00 | 0.00 | 0.00 | 40 | 1012.8 |
| 20260507194329 | 61 | 285 | 6.0 | 12.0 | 0.00 | 0.00 | 0.00 | 38 | 1012.8 |
| 20260507193822 | 61 | 278 | 6.0 | 10.0 | 0.00 | 0.00 | 0.00 | 38 | 1013.0 |
| 20260507192813 | 60 | 309 | 8.0 | 17.0 | 0.00 | 0.00 | 0.00 | 37 | 1013.1 |
| 20260507192325 | 60 | 360 | 7.0 | 15.0 | 0.00 | 0.00 | 0.00 | 38 | 1013.2 |
| 20260507191818 | 60 | 345 | 9.0 | 15.0 | 0.00 | 0.00 | 0.00 | 36 | 1013.1 |
| 20260507191311 | 61 | 253 | 4.0 | 9.0 | 0.00 | 0.00 | 0.00 | 38 | 1013.1 |
| 20260507190829 | 60 | 352 | 3.0 | 9.0 | 0.00 | 0.00 | 0.00 | 40 | 1013.1 |
| 20260507190321 | 60 | 38 | 4.0 | 10.0 | 0.00 | 0.00 | 0.00 | 41 | 1013.2 |
| 20260507185829 | 60 | 4 | 7.0 | 11.0 | 0.00 | 0.00 | 0.00 | 40 | 1013.2 |
| 20260507185321 | 60 | 29 | 7.0 | 11.0 | 0.00 | 0.00 | 0.00 | 39 | 1013.1 |
| 20260507184813 | 59 | 66 | 5.0 | 16.0 | 0.00 | 0.00 | 0.00 | 41 | 1013.2 |
| 20260507184324 | 59 | 40 | 6.0 | 16.0 | 0.00 | 0.00 | 0.00 | 39 | 1013.3 |
| 20260507183817 | 59 | 43 | 9.0 | 13.0 | 0.00 | 0.00 | 0.00 | 41 | 1013.2 |
| 20260507183328 | 59 | 41 | 6.0 | 15.0 | 0.00 | 0.00 | 0.00 | 41 | 1013.1 |
| 20260507182820 | 59 | 319 | 6.0 | 15.0 | 0.00 | 0.00 | 0.00 | 38 | 1013.1 |
| 20260507182336 | 59 | 332 | 8.0 | 12.0 | 0.00 | 0.00 | 0.00 | 39 | 1013.2 |
| 20260507181828 | 59 | 8 | 7.0 | 14.0 | 0.00 | 0.00 | 0.00 | 38 | 1013.3 |
| 20260507181320 | 60 | 345 | 7.0 | 14.0 | 0.00 | 0.00 | 0.00 | 42 | 1013.3 |
| 20260507180314 | 59 | 110 | 5.0 | 13.0 | 0.00 | 0.00 | 0.00 | 43 | 1013.4 |
| 20260507175844 | 59 | 321 | 5.0 | 13.0 | 0.00 | 0.00 | 0.00 | 43 | 1013.5 |
| 20260507175315 | 59 | 46 | 4.0 | 11.0 | 0.00 | 0.00 | 0.00 | 42 | 1013.5 |
| 20260507174828 | 58 | 328 | 6.0 | 12.0 | 0.00 | 0.00 | 0.00 | 41 | 1013.5 |
| 20260507174322 | 58 | 348 | 5.0 | 12.0 | 0.00 | 0.00 | 0.00 | 44 | 1013.7 |
| 20260507173817 | 58 | 26 | 5.0 | 14.0 | 0.00 | 0.00 | 0.00 | 41 | 1013.8 |
| 20260507173350 | 58 | 41 | 9.0 | 14.0 | 0.00 | 0.00 | 0.00 | 39 | 1013.8 |
| 20260507172825 | 58 | 232 | 4.0 | 13.0 | 0.00 | 0.00 | 0.00 | 45 | 1013.8 |
| 20260507172317 | 58 | 305 | 6.0 | 16.0 | 0.00 | 0.00 | 0.00 | 42 | 1014.0 |
| 20260507171829 | 58 | 61 | 7.0 | 17.0 | 0.00 | 0.00 | 0.00 | 42 | 1014.1 |
| 20260507171321 | 58 | 31 | 6.0 | 12.0 | 0.00 | 0.00 | 0.00 | 41 | 1014.2 |
| 20260507170813 | 58 | 294 | 6.0 | 16.0 | 0.00 | 0.00 | 0.00 | 42 | 1014.2 |
| 20260507170325 | 57 | 274 | 7.0 | 16.0 | 0.00 | 0.00 | 0.00 | 42 | 1014.2 |
| 20260507165815 | 57 | 14 | 6.0 | 13.0 | 0.00 | 0.00 | 0.00 | 42 | 1014.3 |
| 20260507165347 | 57 | 281 | 6.0 | 13.0 | 0.00 | 0.00 | 0.00 | 42 | 1014.4 |
| 20260507164819 | 57 | 347 | 7.0 | 13.0 | 0.00 | 0.00 | 0.00 | 42 | 1014.4 |
| 20260507164315 | 57 | 40 | 7.0 | 14.0 | 0.00 | 0.00 | 0.00 | 41 | 1014.4 |
| 20260507163828 | 57 | 288 | 10.0 | 14.0 | 0.00 | 0.00 | 0.00 | 39 | 1014.4 |
| 20260507163401 | 57 | 44 | 6.0 | 15.0 | 0.00 | 0.00 | 0.00 | 42 | 1014.7 |
| 20260507162829 | 57 | 302 | 6.0 | 15.0 | 0.00 | 0.00 | 0.00 | 41 | 1014.5 |
| 20260507162323 | 57 | 299 | 8.0 | 15.0 | 0.00 | 0.00 | 0.00 | 39 | 1014.4 |
| 20260507161816 | 56 | 39 | 4.0 | 12.0 | 0.00 | 0.00 | 0.00 | 42 | 1014.5 |
| 20260507161329 | 56 | 15 | 5.0 | 11.0 | 0.00 | 0.00 | 0.00 | 41 | 1014.5 |
| 20260507160841 | 56 | 349 | 4.0 | 13.0 | 0.00 | 0.00 | 0.00 | 42 | 1014.5 |
| 20260507160334 | 56 | 297 | 5.0 | 18.0 | 0.00 | 0.00 | 0.00 | 42 | 1014.5 |
| 20260507155843 | 56 | 294 | 7.0 | 18.0 | 0.00 | 0.00 | 0.00 | 40 | 1014.5 |
| 20260507155316 | 57 | 348 | 6.0 | 9.0 | 0.00 | 0.00 | 0.00 | 44 | 1014.5 |
| 20260507154814 | 57 | 357 | 4.0 | 12.0 | 0.00 | 0.00 | 0.00 | 41 | 1014.5 |
| 20260507154328 | 57 | 335 | 5.0 | 12.0 | 0.00 | 0.00 | 0.00 | 42 | 1014.5 |
| 20260507153822 | 56 | 297 | 3.0 | 10.0 | 0.00 | 0.00 | 0.00 | 45 | 1014.4 |
| 20260507153316 | 56 | 347 | 5.0 | 9.0 | 0.00 | 0.00 | 0.00 | 47 | 1014.4 |
| 20260507152830 | 55 | 348 | 5.0 | 9.0 | 0.00 | 0.00 | 0.00 | 48 | 1014.4 |
| 20260507151824 | 55 | 26 | 5.0 | 10.0 | 0.00 | 0.00 | 0.00 | 49 | 1014.4 |
| 20260507151321 | 55 | 283 | 3.0 | 10.0 | 0.00 | 0.00 | 0.00 | 46 | 1014.3 |
| 20260507150815 | 55 | 324 | 4.0 | 10.0 | 0.00 | 0.00 | 0.00 | 45 | 1014.4 |
| 20260507150328 | 55 | 309 | 4.0 | 9.0 | 0.00 | 0.00 | 0.00 | 48 | 1014.4 |
| 20260507145817 | 54 | 281 | 6.0 | 9.0 | 0.00 | 0.00 | 0.00 | 47 | 1014.5 |
| 20260507145328 | 54 | 321 | 3.0 | 13.0 | 0.00 | 0.00 | 0.00 | 49 | 1014.5 |
| 20260507144821 | 54 | 8 | 4.0 | 13.0 | 0.00 | 0.00 | 0.00 | 47 | 1014.5 |
| 20260507144313 | 54 | 360 | 4.0 | 7.0 | 0.00 | 0.00 | 0.00 | 52 | 1014.5 |
| 20260507143827 | 54 | 351 | 4.0 | 10.0 | 0.00 | 0.00 | 0.00 | 49 | 1014.5 |
| 20260507143324 | 54 | 4 | 4.0 | 11.0 | 0.00 | 0.00 | 0.00 | 52 | 1014.4 |
| 20260507142317 | 53 | 42 | 5.0 | 9.0 | 0.00 | 0.00 | 0.00 | 52 | 1014.5 |
| 20260507141831 | 53 | 32 | 7.0 | 12.0 | 0.00 | 0.00 | 0.00 | 51 | 1014.6 |
| 20260507141324 | 53 | 41 | 6.0 | 10.0 | 0.00 | 0.00 | 0.00 | 50 | 1014.6 |
| 20260507140818 | 53 | 5 | 3.0 | 11.0 | 0.00 | 0.00 | 0.00 | 53 | 1014.6 |
| 20260507140333 | 52 | 315 | 4.0 | 11.0 | 0.00 | 0.00 | 0.00 | 51 | 1014.5 |
| 20260507135843 | 52 | 39 | 7.0 | 9.0 | 0.00 | 0.00 | 0.00 | 53 | 1014.6 |
| 20260507135316 | 52 | 243 | 3.0 | 10.0 | 0.00 | 0.00 | 0.00 | 54 | 1014.5 |
| 20260507134828 | 52 | 47 | 7.0 | 10.0 | 0.00 | 0.00 | 0.00 | 55 | 1014.5 |
| 20260507133840 | 52 | 360 | 4.0 | 8.0 | 0.00 | 0.00 | 0.00 | 54 | 1014.5 |
| 20260507133332 | 52 | 39 | 3.0 | 6.0 | 0.00 | 0.00 | 0.00 | 59 | 1014.4 |
| 20260507132825 | 52 | 27 | 2.0 | 4.0 | 0.00 | 0.00 | 0.00 | 63 | 1014.5 |
| 20260507132318 | 51 | 36 | 2.0 | 5.0 | 0.00 | 0.00 | 0.00 | 63 | 1014.5 |
| 20260507131832 | 51 | 37 | 2.0 | 5.0 | 0.00 | 0.00 | 0.00 | 62 | 1014.5 |
| 20260507131327 | 51 | 54 | 2.0 | 3.0 | 0.00 | 0.00 | 0.00 | 67 | 1014.5 |
| 20260507130821 | 50 | 13 | 1.0 | 4.0 | 0.00 | 0.00 | 0.00 | 71 | 1014.6 |
| 20260507130353 | 50 | 296 | 2.0 | 4.0 | 0.00 | 0.00 | 0.00 | 70 | 1014.5 |
| 20260507125822 | 50 | 79 | 2.0 | 4.0 | 0.00 | 0.00 | 0.00 | 70 | 1014.5 |
| 20260507125320 | 50 | 40 | 0.0 | 3.0 | 0.00 | 0.00 | 0.00 | 70 | 1014.5 |
| 20260507124853 | 50 | 40 | 1.0 | 3.0 | 0.00 | 0.00 | 0.00 | 69 | 1014.5 |
| 20260507124324 | 49 | 56 | 0.0 | 2.0 | 0.00 | 0.00 | 0.00 | 71 | 1014.4 |
| 20260507123817 | 49 | 57 | 1.0 | 3.0 | 0.00 | 0.00 | 0.00 | 71 | 1014.5 |
| 20260507123329 | 49 | 51 | 2.0 | 3.0 | 0.00 | 0.00 | 0.00 | 71 | 1014.5 |
| 20260507122823 | 49 | 76 | 1.0 | 2.0 | 0.00 | 0.00 | 0.00 | 71 | 1014.6 |
| 20260507122336 | 49 | 70 | 2.0 | 2.0 | 0.00 | 0.00 | 0.00 | 72 | 1014.7 |
| 20260507121828 | 49 | 32 | 1.0 | 2.0 | 0.00 | 0.00 | 0.00 | 77 | 1014.7 |
| 20260507121321 | 47 | 32 | 0.0 | 0.0 | 0.00 | 0.00 | 0.00 | 81 | 1014.7 |
| 20260507120818 | 46 | 31 | 0.0 | 1.0 | 0.00 | 0.00 | 0.00 | 81 | 1014.7 |
| 20260507120351 | 45 | 31 | 0.0 | 1.0 | 0.00 | 0.00 | 0.00 | 82 | 1014.7 |
| 20260507115817 | 45 | 32 | 0.0 | 1.0 | 0.00 | 0.00 | 0.00 | 82 | 1014.7 |
| 20260507115331 | 44 | 31 | 1.0 | 1.0 | 0.00 | 0.00 | 0.00 | 83 | 1014.8 |
| 20260507114825 | 44 | 32 | 0.0 | 2.0 | 0.00 | 0.00 | 0.00 | 83 | 1014.7 |
| 20260507114318 | 43 | 32 | 1.0 | 2.0 | 0.00 | 0.00 | 0.00 | 84 | 1014.8 |
| 20260507113831 | 43 | 32 | 0.0 | 0.0 | 0.00 | 0.00 | 0.00 | 84 | 1014.7 |
| 20260507113324 | 42 | 32 | 0.0 | 1.0 | 0.00 | 0.00 | 0.00 | 85 | 1014.7 |
| 20260507112821 | 41 | 32 | 0.0 | 0.0 | 0.00 | 0.00 | 0.00 | 85 | 1014.7 |
| 20260507112353 | 40 | 32 | 0.0 | 0.0 | 0.00 | 0.00 | 0.00 | 85 | 1014.6 |
| 20260507111824 | 40 | 31 | 0.0 | 0.0 | 0.00 | 0.00 | 0.00 | 85 | 1014.6 |
| 20260507111317 | 40 | 31 | 0.0 | 0.0 | 0.00 | 0.00 | 0.00 | 86 | 1014.5 |
| 20260507110830 | 39 | 32 | 0.0 | 1.0 | 0.00 | 0.00 | 0.00 | 86 | 1014.4 |
| 20260507110323 | 39 | 32 | 0.0 | 1.0 | 0.00 | 0.00 | 0.00 | 86 | 1014.3 |
| 20260507105814 | 39 | 32 | 0.0 | 1.0 | 0.00 | 0.00 | 0.00 | 86 | 1014.2 |
| 20260507105327 | 38 | 32 | 0.0 | 0.0 | 0.00 | 0.00 | 0.00 | 86 | 1014.2 |
| 20260507104820 | 38 | 32 | 0.0 | 0.0 | 0.00 | 0.00 | 0.00 | 86 | 1014.0 |
| 20260507104316 | 38 | 31 | 0.0 | 0.0 | 0.00 | 0.00 | 0.00 | 85 | 1013.9 |
| 20260507103828 | 38 | 31 | 0.0 | 0.0 | 0.00 | 0.00 | 0.00 | 85 | 1013.8 |
| 20260507103320 | 38 | 31 | 0.0 | 0.0 | 0.00 | 0.00 | 0.00 | 85 | 1013.8 |
| 20260507102814 | 39 | 31 | 0.0 | 1.0 | 0.00 | 0.00 | 0.00 | 85 | 1013.8 |
| 20260507101827 | 39 | 31 | 0.0 | 1.0 | 0.00 | 0.00 | 0.00 | 85 | 1013.9 |
| 20260507101322 | 40 | 31 | 0.0 | 1.0 | 0.00 | 0.00 | 0.00 | 85 | 1013.9 |
| 20260507100835 | 40 | 31 | 0.0 | 1.0 | 0.00 | 0.00 | 0.00 | 85 | 1013.9 |
| 20260507100331 | 40 | 32 | 0.0 | 1.0 | 0.00 | 0.00 | 0.00 | 86 | 1013.9 |
| 20260507095822 | 40 | 32 | 0.0 | 1.0 | 0.00 | 0.00 | 0.00 | 86 | 1013.9 |
| 20260507095316 | 40 | 31 | 0.0 | 1.0 | 0.00 | 0.00 | 0.00 | 86 | 1013.9 |
| 20260507094322 | 40 | 32 | 0.0 | 0.0 | 0.00 | 0.00 | 0.00 | 86 | 1013.9 |
| 20260507093815 | 40 | 32 | 0.0 | 1.0 | 0.00 | 0.00 | 0.00 | 86 | 1014.0 |
| 20260507085315 | 40 | 34 | 0.0 | 0.0 | 0.00 | 0.02 | 0.00 | 87 | 1013.5 |
| 20260507084827 | 40 | 34 | 0.0 | 0.0 | 0.00 | 0.02 | 0.00 | 87 | 1013.5 |
| 20260507084324 | 40 | 34 | 0.0 | 0.0 | 0.00 | 0.02 | 0.00 | 87 | 1013.5 |
| 20260507083817 | 40 | 34 | 0.0 | 0.0 | 0.00 | 0.02 | 0.00 | 87 | 1013.4 |
| 20260507083330 | 40 | 34 | 0.0 | 0.0 | 0.00 | 0.02 | 0.00 | 87 | 1013.3 |
| 20260507082823 | 40 | 34 | 0.0 | 0.0 | 0.00 | 0.02 | 0.00 | 86 | 1013.3 |
| 20260507082316 | 40 | 34 | 0.0 | 0.0 | 0.00 | 0.02 | 0.00 | 86 | 1013.3 |
| 20260507081828 | 40 | 34 | 0.0 | 0.0 | 0.00 | 0.02 | 0.00 | 86 | 1013.3 |
| 20260507081320 | 40 | 34 | 0.0 | 0.0 | 0.00 | 0.02 | 0.00 | 85 | 1013.3 |
| 20260507080816 | 41 | 34 | 0.0 | 0.0 | 0.00 | 0.02 | 0.00 | 85 | 1013.3 |
| 20260507080328 | 41 | 34 | 0.0 | 0.0 | 0.00 | 0.02 | 0.00 | 85 | 1013.3 |
| 20260507075816 | 41 | 34 | 0.0 | 0.0 | 0.00 | 0.04 | 0.00 | 84 | 1013.2 |
| 20260507073828 | 43 | 34 | 0.0 | 0.0 | 0.00 | 0.04 | 0.00 | 84 | 1013.2 |
| 20260507055327 | 43 | 34 | 0.0 | 0.0 | 0.00 | 0.42 | 0.00 | 84 | 1013.3 |
| 20260507054819 | 43 | 34 | 0.0 | 0.0 | 0.00 | 0.42 | 0.00 | 83 | 1013.4 |
| 20260507054351 | 43 | 34 | 0.0 | 0.0 | 0.00 | 0.42 | 0.00 | 83 | 1013.4 |
| 20260507053842 | 43 | 34 | 0.0 | 1.0 | 0.00 | 0.42 | 0.00 | 83 | 1013.4 |
| 20260507053353 | 44 | 34 | 0.0 | 1.0 | 0.00 | 0.42 | 0.00 | 83 | 1013.3 |
| 20260507052824 | 44 | 34 | 0.0 | 1.0 | 0.00 | 0.42 | 0.00 | 83 | 1013.4 |
| 20260507052316 | 44 | 34 | 0.0 | 1.0 | 0.00 | 0.42 | 0.00 | 83 | 1013.6 |
| 20260507051829 | 44 | 34 | 0.0 | 0.0 | 0.00 | 0.42 | 0.00 | 83 | 1013.5 |
| 20260507000816 | 58 | 28 | 2.0 | 7.0 | 0.00 | 0.69 | 0.59 | 63 | 1012.0 |
| 20260507000329 | 58 | 28 | 3.0 | 5.0 | 0.00 | 0.69 | 0.59 | 62 | 1011.9 |
| 20260506235819 | 58 | 48 | 2.0 | 8.0 | 0.00 | 0.73 | 0.59 | 63 | 1012.1 |
| 20260506235315 | 58 | 39 | 4.0 | 9.0 | 0.00 | 0.73 | 0.59 | 61 | 1012.1 |
| 20260506234828 | 58 | 14 | 3.0 | 6.0 | 0.00 | 0.73 | 0.59 | 61 | 1012.1 |
| 20260506233852 | 58 | 25 | 4.0 | 6.0 | 0.00 | 0.73 | 0.59 | 61 | 1012.0 |
| 20260506233324 | 58 | 39 | 3.0 | 8.0 | 0.00 | 0.73 | 0.59 | 61 | 1012.0 |
| 20260506232817 | 58 | 355 | 2.0 | 8.0 | 0.00 | 0.73 | 0.59 | 61 | 1012.1 |
| 20260506232332 | 58 | 41 | 2.0 | 4.0 | 0.00 | 0.73 | 0.59 | 60 | 1012.0 |
| 20260506231845 | 58 | 40 | 2.0 | 7.0 | 0.00 | 0.73 | 0.59 | 59 | 1011.9 |
| 20260506231318 | 58 | 6 | 3.0 | 7.0 | 0.00 | 0.73 | 0.59 | 58 | 1011.7 |
| 20260506230834 | 58 | 28 | 3.0 | 8.0 | 0.00 | 0.73 | 0.59 | 59 | 1011.7 |
| 20260506224334 | 58 | 34 | 6.0 | 10.0 | 0.00 | 0.80 | 0.59 | 57 | 1011.3 |